Lid_Strength_Index
-1 -0 0 3 10 10 12 10 8 8 8 6 5 7 8 7 9 12 3 1 0 0 -0 -0 -1 -1 -1 -1 -1 -1 -1 -1 -1 -1 -1 -1 -1 -1 -1 -1 -1 -1 -2 -2 -2 -2 -2 -2 -2
-0 0 2 5 12 14 12 8 9 8 6 6 6 6 7 8 5 4 3 1 0 0 -0 -0 -1 -1 -1 -1 -1 -1 -1 -1 -2 -1 -1 -1 -1 -1 -1 -1 -2 -1 -2 -2 -2 -2 -2 -2 -2
-0 0 6 9 11 13 12 8 8 6 6 6 6 6 6 7 4 4 2 1 0 0 -0 -1 -1 -1 -1 -1 -1 -2 -2 -2 -2 -2 -2 -2 -1 -1 -2 -1 -1 -2 -2 -2 -2 -2 -2 -2 -2
2 3 5 11 12 9 9 8 7 7 6 6 6 7 5 3 4 2 1 1 1 0 -0 -1 -1 -1 -1 -1 -2 -2 -1 -1 -2 -2 -2 -2 -1 -1 -1 -1 -1 -2 -2 -2 -2 -2 -2 -1 -1
2 5 10 12 11 9 7 7 8 8 7 7 7 7 7 4 2 1 1 1 1 0 -0 -0 -1 -1 -1 -2 -2 -2 -2 -2 -2 -2 -2 -1 -1 -1 -1 -1 -1 -2 -1 -2 -2 -2 -1 -1 -1
7 6 13 14 11 8 7 7 8 8 7 8 8 7 7 2 2 2 1 1 1 1 -0 -0 -1 -1 -1 -2 -2 -2 -2 -2 -3 -2 -2 -1 -2 -1 -1 -1 -1 -1 -1 -2 -2 -1 -1 -1 -1
9 10 13 12 11 9 7 6 8 8 9 8 8 8 6 4 2 1 1 1 1 1 0 0 -0 -0 -1 -1 -1 -2 -2 -2 -2 -2 -2 -2 -2 -2 -1 -1 -1 -2 -2 -2 -1 -1 -1 -1 -1
6 9 12 11 11 10 6 6 6 7 7 6 7 8 9 4 2 1 1 1 1 1 0 0 0 0 -0 -1 -1 -1 -1 -1 -2 -2 -2 -2 -1 -1 -2 -2 -2 -2 -2 -2 -1 -1 -1 -1 -1
4 11 14 12 11 9 6 7 6 5 6 7 7 5 4 2 2 2 3 2 2 1 1 1 0 0 0 0 -0 -1 -1 -1 -1 -1 -1 -1 0 -0 -1 -1 -1 -2 -2 -2 -1 -1 -1 -2 -2
7 11 11 8 7 8 6 6 7 7 7 7 7 4 3 3 3 4 4 4 4 3 2 1 1 0 0 0 0 0 -0 0 -1 0 1 0 0 0 -1 -0 -1 -1 -1 -1 -2 -2 -2 -2 0
7 11 8 7 6 7 6 7 6 8 8 7 7 5 4 4 4 4 4 3 3 2 2 1 1 1 1 1 0 0 0 0 -0 -0 1 0 0 0 0 0 0 0 0 0 -0 0 1 2 2
9 7 6 6 6 7 7 6 7 7 7 5 4 4 4 4 4 4 4 3 3 2 2 1 1 1 1 1 1 1 0 0 0 -0 0 0 1 1 2 0 1 1 0 1 0 1 2 2 3
8 7 6 5 6 6 6 7 8 8 6 5 4 4 5 5 5 3 3 3 3 2 2 1 1 1 1 1 1 1 1 0 1 1 1 1 1 1 1 1 1 0 1 1 0 1 1 2 3
7 6 6 6 6 6 7 7 8 6 6 6 5 6 6 5 5 5 3 3 3 2 2 1 1 1 1 1 1 1 1 1 1 1 1 1 1 1 1 1 1 2 1 1 1 1 3 3 3
6 9 7 7 7 8 6 9 9 7 6 6 6 6 5 5 5 5 4 4 4 2 1 1 1 1 1 1 1 1 1 0 1 1 1 1 1 1 1 1 2 1 1 1 1 2 2 4 4
9 9 12 8 7 7 7 12 7 6 7 6 7 7 6 6 5 5 5 4 3 5 6 2 0 1 1 1 1 1 1 1 1 1 1 1 1 1 1 1 1 1 1 2 2 2 3 4 5
10 14 13 10 7 8 8 11 7 6 7 7 7 7 7 7 6 6 5 6 4 3 4 5 5 2 1 1 1 1 1 1 0 0 1 1 1 1 1 1 1 1 1 2 2 2 3 4 5
14 14 12 12 9 9 10 10 8 8 8 9 8 8 8 7 7 6 5 5 5 4 4 3 3 4 4 3 1 1 2 1 1 1 1 1 1 1 1 2 2 1 2 2 2 3 3 4 4
10 11 12 10 9 10 11 10 9 8 8 8 8 8 8 7 6 6 6 6 6 6 5 5 4 3 4 4 3 2 2 1 1 0 1 1 1 1 1 1 1 1 1 1 2 2 3 4 4
10 12 11 10 9 10 11 12 10 9 8 8 9 9 8 8 7 7 6 6 6 6 6 6 5 4 3 3 2 2 2 1 1 1 -0 1 1 1 1 2 1 1 2 2 2 2 3 4 5
11 12 11 12 10 10 12 13 11 9 9 9 9 10 9 9 8 7 6 6 6 5 5 4 4 5 5 4 3 3 3 2 2 2 1 0 0 1 1 1 1 2 2 2 2 2 3 4 5
13 9 9 11 12 16 11 19 13 11 11 10 11 10 10 9 7 6 6 6 6 5 4 3 3 4 4 5 5 5 5 4 2 2 1 1 1 1 0 1 1 1 1 1 1 2 2 4 6
11 9 10 11 13 14 14 17 15 12 12 11 10 9 8 7 7 6 6 5 5 4 4 4 4 4 4 4 5 5 5 5 4 3 2 2 2 1 1 1 0 1 1 1 1 1 2 2 4
8 10 11 12 13 19 14 15 16 14 12 11 10 8 7 7 6 6 5 5 5 5 5 5 4 4 4 4 4 4 5 6 6 5 4 2 2 2 1 1 1 1 0 1 1 1 2 2 2
10 13 19 20 20 20 13 15 14 12 11 10 10 9 8 7 6 6 6 6 6 6 6 5 5 5 5 5 5 5 5 5 5 5 4 3 2 2 2 2 1 1 0 1 1 1 1 2 3
13 13 18 22 22 19 15 18 15 12 10 9 8 8 8 7 7 7 7 7 6 6 6 5 6 6 5 5 5 5 4 4 4 4 4 4 4 3 1 1 1 1 1 1 1 1 1 1 2
13 16 12 16 16 18 16 15 13 11 11 10 9 8 8 7 7 7 6 6 6 6 6 6 6 6 6 7 6 6 5 4 4 4 3 3 3 1 2 2 1 1 1 1 1 1 1 1 2
11 10 16 16 22 21 17 16 16 14 13 10 9 8 7 6 6 6 7 7 6 6 6 7 7 8 7 7 7 6 6 5 5 4 4 4 4 3 2 2 2 2 1 1 1 2 2 3 3
13 14 13 14 16 20 20 18 13 12 12 11 10 8 7 6 7 7 8 7 7 7 7 8 8 8 8 8 8 7 7 7 6 7 7 6 5 4 4 3 3 2 1 1 2 2 3 3 5
11 11 12 18 18 18 18 17 11 11 10 10 10 8 7 6 7 8 8 8 8 8 8 9 9 8 8 8 8 8 8 8 9 9 8 8 8 7 6 5 5 5 5 6 6 6 6 6 8